Regional Weather Roundup
Issued by NWS Upton, NY

Home | Current Version | Previous Version | Text Only | Print | Product List | Glossary On
Versions: 1 2 3 4 5 6 7 8 9 10 11 12 13 14 15 16 17 18 19 20 21 22 23 24 25 26 27 28 29 30 31 32 33 34 35 36 37 38 39 40 41 42 43 44 45 46 47 48 49 50
000
ASUS41 KOKX 301405
RWROKX

REGIONAL WEATHER ROUNDUP
NATIONAL WEATHER SERVICE NEW YORK NY
900 AM EST FRI JAN 30 2015

NOTE: "FAIR" INDICATES FEW OR NO CLOUDS BELOW 12,000 FEET WITH NO
SIGNIFICANT WEATHER AND/OR OBSTRUCTIONS TO VISIBILITY.

NYZ071-072-176-178-NJZ106-104-301500-
NEW YORK CITY METRO AREA


CITY           SKY/WX    TMP DP  RH WIND       PRES   REMARKS
CENTRAL PARK   LGT SNOW  32  26  78 VRB7      29.89R WCI  26
LAGUARDIA APRT LGT SNOW  33  26  75 W13G21    29.87R WCI  24
KENNEDY INTL   LGT SNOW  33  26  75 W13       29.88R WCI  24
NEWARK/LIBERTY LGT SNOW  31  27  85 W6        29.89R FOG     WCI  25
BRNX BOT. GARD   N/A    N/A N/A N/A W9        29.89R
TETERBORO      LGT SNOW  31  26  82 W6        29.88R FOG     WCI  25
$$

NYZ177-179-078>081-301500-
LONG ISLAND NEW YORK

CITY           SKY/WX    TMP DP  RH WIND       PRES   REMARKS
FARMINGDALE    LGT SNOW  32  28  85 W9        29.86R FOG     WCI  24
ISLIP          LGT SNOW  33  29  85 W9        29.82S FOG     WCI  25
SHIRLEY        LGT SNOW  33  30  88 NW8       29.84S FOG     WCI  26
WESTHAMPTON    LGT SNOW  34  33  96 W3        29.84S FOG
MONTAUK POINT    N/A     35  32  88 W3        29.84R
$$

NYZ052-065-067-301500-
HUDSON VALLEY

CITY           SKY/WX    TMP DP  RH WIND       PRES   REMARKS
WHITE PLAINS   LGT SNOW  30  26  85 W9        29.83R FOG     WCI  22
NEWBURGH       LGT SNOW  27  25  93 W12       29.85R WCI  16
MONTGOMERY     LGT SNOW  28  25  88 SW6       29.84R FOG     WCI  22
POUGHKEEPSIE   LGT SNOW  29  25  85 CALM      29.85S FOG
ALBANY         SNOW      28  25  88 S5        29.85R VSB 1/2 WCI  23
$$

NJZ001-105-106-008-010-013-015-019>022-104-301500-
NEW JERSEY

CITY           SKY/WX    TMP DP  RH WIND       PRES   REMARKS
NEWARK/LIBERTY LGT SNOW  31  27  85 W6        29.89R FOG     WCI  25
TETERBORO      LGT SNOW  31  26  82 W6        29.88R FOG     WCI  25
CALDWELL       LGT SNOW  30  27  88 CALM      29.88R FOG
MORRISTOWN     LGT SNOW  30  27  86 NW3       29.88R
SOMERVILLE     CLOUDY    31  25  78 NW5       29.88R WCI  26
SUSSEX         LGT SNOW  27  24  89 VRB5      29.86R FOG     WCI  22
ANDOVER          N/A     27  24  89 CALM      29.86R
TRENTON        CLOUDY    32  24  72 NW8       29.90R WCI  25
MILLVILLE      MOSUNNY   37  25  61 NW16G29   29.92R WCI  28
ATLANTIC CITY  CLOUDY    35  26  69 NW16      29.90R WCI  25
WRIGHTSTOWN    CLOUDY    33  26  75 NW9       29.88R WCI  25
TOMS RIVER     CLOUDY    32  27  80 NW10      29.90R WCI  24
BELMAR         CLOUDY    30  23  74 NW12      29.88R WCI  21
$$

PAZ047>061-062-071-301500-
EASTERN PENNSYLVANIA

CITY           SKY/WX    TMP DP  RH WIND       PRES   REMARKS
PHILADELPHIA   CLOUDY    36  25  64 NW13      29.94R WCI  27
ALLENTOWN      LGT SNOW  32  27  80 W7        29.90R WCI  26
SCRANTON       SNOW      28  25  88 SW7       29.88R VSB 1/4 WCI  21
$$

CTZ002-004>006-009-010-012-RIZ004-006-007-MAZ004-011-015-301500-
SOUTHERN NEW ENGLAND
 IN CT

CITY           SKY/WX    TMP DP  RH WIND       PRES   REMARKS
BRADLEY INTL   LGT SNOW  30  27  88 NW6       29.81S FOG     WCI  24
HARTFORD       LGT SNOW  32  27  81 W7        29.83F WCI  26
DANBURY        LGT SNOW  29  23  78 W6        29.84R WCI  23
WTRBRY/OXFORD  LGT SNOW  28  21  74 CALM      29.81S VSB 1
BRIDGEPORT     LGT SNOW  32  30  92 W8        29.84R FOG     WCI  25
MERIDEN        LGT SNOW  32  27  81 CALM      29.83S
NEW HAVEN      LGT SNOW  32  31  96 NW5       29.83S FOG     WCI  27
CHESTER        LGT SNOW  32  32 100 NW6       29.80F WCI  26
GROTON         LGT SNOW  33  32  96 NW3       29.82S FOG
WILLIMANTIC    LGT SNOW  30  27  88 CALM      29.82S VSB 1

 IN RI

CITY           SKY/WX    TMP DP  RH WIND       PRES   REMARKS
PROVIDENCE     LGT SNOW  33  31  92 CALM      29.82S VSB 1
BLOCK ISLAND   CLOUDY    36  32  87 W6        29.80S WCI  31
WESTERLY       LGT SNOW  33  32  96 CALM      29.82F FOG

 IN MA

CITY           SKY/WX    TMP DP  RH WIND       PRES   REMARKS
BOSTON         FLURRIES  32  29  88 S3        29.82F
WORCESTER      LGT SNOW  28  27  96 W7        29.76F FOG     WCI  21
WESTFIELD      LGT SNOW  29  26  89 CALM      29.81F FOG
PROVINCETOWN   NOT AVBL
NANTUCKET      CLOUDY    38  37  97 CALM      29.82F FOG
$$

ANZ330-335-338-340-345-350-353-355-301500-
COASTAL MARINE OBSERVATIONS


STATION/POSITION TIME  SKY/WX   TEMP    WIND        PRES    VSBY  WAVE
                                AIR SEA DIR/SP/G                  HT/PER
                 (UTC)          (F)     (DEG/KT/KT) (MB)    (MI)  (FT/S)
NY HARB ENTRANCE 1400            33 39  290/ 19/ 21 1010.9          3/ 6
4S FIRE IS       1400               37                N/A           4/ 6
20S FIRE ISLAND  1300               42              1010.7          4/ 6
23SW MTP         1400                                 N/A           4/ 6
HUDSON CANYON    NOT AVBL
EXECUTION ROCKS  1400            32 33  250/  8/ 12   N/A
WESTERN LI SOUND 1400            32     260/ 10/ 14   N/A           0
CENTRAL LI SOUND 1300            33 35  250/  6/ 10   N/A           0
EASTERN LI SOUND NOT AVBL
ROBBINS REEF     1400            31     280/ 11/ 13 1010.6
$$


>>>>>>>>>>>>>>>>>>>>>>>>>>>> KEY <<<<<<<<<<<<<<<<<<<<<<<<<<<
>                                                          <
>     SKY/WX - SKY CONDITION/PRESENT WEATHER               <
>     TMP    - TEMPERATURE IN FAHRENHEIT                   <
>     DP     - DEWPOINT IN FAHRENHEIT                      <
>     RH     - RELATIVE HUMIDITY IN PERCENT                <
>     WIND   - DIRECTION AND SPEED IN MPH                  <
>     PRES   - MEAN SEA LEVEL PRESSURE IN INCHES OF HG     <
>     WCI    - WIND CHILL INDEX                            <
>     VSB    - VISIBILITY IN MILES                         <
>     HX     - HEAT INDEX                                  <
>     TC     - TEMPERATURE IN CELSIUS                      <
>     VRB    - VARIABLE WIND DIRECTION                     <
>                                                          <
>>>>>>>>>>>>>>>>>>>>>>>>>>>> KEY <<<<<<<<<<<<<<<<<<<<<<<<<<<





USA.gov is the U.S. government's official web portal to all federal, state and local government web resources and services.